Timeline UpdatesTrip UpdatesNews PostsPvt Posts♥♥Travel TipsAdmin PostsConv PostsFollowed PostsChat RequestsBlog PostsPNR Posts

Disclaimer
Search
 
 
Thu Nov 27, 2014 02:57:49 ISTHomeTrainsΣChainsAtlasPNRForumGalleryNewsFAQTripsMembersLoginFeedback
No Recent News for this Train
Other Trains in the News **new
Latest...
Cancelled from 31/12/14-15/2/15 #1263410
Sat Nov 01, 2014 (07:19PM)
⇐ Return Journey: Train# 15483

14084⇒15484/Sikkim Mahananda Express

Time-Table HAS CHANGED.
Nov 01 (7:19PM)
Change Departure Station:
Change Arrival Station:
Post a Train Travel TipPost a Train Travel Tip **new
Post a Comment/Question/Picture/VideoPost a Comment/Question/Picture/Video
Pantry/Catering
✓ Pantry Car Avbl
✓ Catering Avbl
RSA - Rake Sharing
Rake/Coach Composition
LOCO-SLR-GS-GS-GS-S1-S2-S3-S4-S5-S6-S7-S8-S9-S10-S11-PC-B1-AB-GS-GS-GS-SLR
Loco
DLI - PNBE: Mughalsarai shed WAP-4 or Ghaziabad shed WAP-4/7 PNBE...
Read more...
- APDJ: WDP4/4B of Siliguri shed. **Spotted with MGS WAP-4 22739 at MGS on 30/03/2013**
News    PNR    Forum    Time-Table    Availability    Fare Chart    Map    Arr/Dep History    Trips    Gallery    ΣChains    X/O    Timeline    
Travel Time: 6h 21m    11 halts    Distance: 316 km    Avg Speed: 49 km/hr
Type: Mail/Express
Zone: NFR/Northeast Frontier
Departs @ 06:35
Platform# 9
SMTWTFS
Old Delhi Junction/DLI 
Arrives @ 12:56
Platform# 3
SMTWTFS
Bharthana/BNT 

11 halts. 45 intermediate Stations between Old Delhi Junction and Bharthana

Show ALL intermediate Stations  Show Old Time-Table

#TrkCodeStation NameX/OArrivesAvgDepartsAvgHaltPFDay#KmSpeedElevZoneAddress
1/==/DLIOld Delhi Junction (16)»  -06:40 06:35-910.027219mNRNear Chandni Chowk Metro Station, Delhi NCT
2/==/DSAShahdara Junction (4)X  06:56 06:49-06:58 06:51-2m216.325212mNRCircular Rd, Delhi NCT
3/==/GZBGhaziabad Junction (6)X  07:26 07:24-07:28 07:26-2m2119.976217mNRGhaziabad, Uttar Pradesh
4/==/CHLChola (3)  08:04-08:06-2m--168.058204mNCRTahsil Bulandshahar, Uttar Pradesh
5/==/KRJKhurja Junction (4)X  08:21-08:23-2m2182.671199mNCRBulandshahr, Uttar Pradesh
6/==/ALJNAligarh Junction (4)X  09:00-09:05-5m11126.182192mNCRAligarh, Uttar Pradesh
7/==/HRSHathras Junction (3)X  09:27-09:32-5m11156.286183mNCRMahamaya Nagar(05722-242803), Uttar Pradesh
8/==/JLSJalesar Road (1)X  09:46-09:48-2m11176.323172mNCRMDR 106W, Uttar Pradesh
9/==/TDLTundla Junction (5)X  11:00-11:08-8m31204.252167mNCRDistt.Firozabad, Uttar Pradesh
10/==/FZDFirozabad (4)  11:30 11:27-11:32-2 5m21220.866164mNCRFirozabad, Uttar Pradesh
11/==/SKBShikohabad Junction (4)X  11:53 11:50-11:55-2 5m21240.683166mNCRDistrict Firozabad, Uttar Pradesh
12/==/ETWEtawah (5)  12:38 12:35-12:40-2 5m31296.075154mNCRDistt. Etawah, Uttar Pradesh
13/==/BNTBharthana (3)•  12:56-12:58-2m31315.969147mNCRBharthana, Uttar Pradesh
14/==/ULDAchalda (3)  13:15-13:17-2m31335.463147mNCRDist. Auraiya(05688-1072), Uttar Pradesh
15/==/PHDPhaphund (4)X  13:33-13:35-2m31352.270146mNCRdist. Auraiya, Uttar Pradesh
16/==/JJKJhinjhak (3)X  13:52-13:54-2m31372.067140mNCRAuraiya, Uttar Pradesh
17/==/RURARura (4)X  14:11-14:13-2m31391.160137mNCRJhinjhak, Uttar Pradesh
18/==/PNKPanki (3) new halt!!X  14:46-14:48-2m21423.929129mNCRKANPUR-208 020, Uttar Pradesh
19/==/CNBKanpur Central (10)X  15:12-15:20-8m51435.478128mNCRKANPUR-208 001, Uttar Pradesh
20/==/FTPFatehpur (3)  16:23 16:20-16:25-2 5m21513.078120mNCRFatehpur, Uttar Pradesh
21/==/ALDAllahabad Junction (10)X  17:55-18:05-10m41629.739100mNCRAllahabad 211003, Uttar Pradesh
22/==%NYNNaini Junction (4)  18:16-18:18-2m11636.88698mNCRAllahabad, Uttar Pradesh
23/==/BDLVindhyachal (3)X  19:10-19:12-2m21711.62488mNCRMirzapur, Uttar Pradesh
24/==/MZPMirzapur (3)X  19:33 19:30-19:35-2 5m21718.94588mNCRMirzapur, Uttar Pradesh
25/==/MGSMughal Sarai Junction (8)X  21:00-21:15-15m11782.16683mECRDistt: Chandauli Pin 232101, Uttar Pradesh
26/==/BXRBuxar (3)X  22:41-22:43-2m--1876.09167mECRBuxar, Bihar
27/==/ARAAra Junction (3)  23:28-23:30-2m--1944.58863mECRDistt: Bhojpur Ph 06182-233411, Bihar
28/==/DNRDanapur (5)X  23:57-23:59-2m--1984.01658mECRKhagaul, Bihar
29/==/PNBEPatna Junction (10)X00:35-01:00-25m22993.47857mECRPatna 800001, Bihar
30/==/BKPBakhtiyarpur Junction (5)X  01:35-01:37-2m--21038.85851mECRPatna, Bihar
31/==/MKAMokama Junction (4)X  02:22-02:24-2m--21082.71448mECRPatna, Bihar
32/--%BJUBarauni Junction (9)  03:55-04:00-5m121103.34249mECRBegusarai, Bihar
33%--%BGSBegusarai (3)  04:22 04:19-04:24-2 5m--21116.84646mECRBegusarai, Bihar
34%==%LKNLakhminia (3)  04:54 04:47-04:56 04:49-2m--21134.64845mECRBegusarai, Bihar
35%==%SKJSahibpur Kamal Junction (2)  05:08 05:01-05:10 05:03-2m--21144.34641mECRShahpur Kamal, Bihar
36%==%KGGKhagaria Junction (3)XO  05:36 05:19-05:38 05:20-2 1m--21156.72043mECRKhagaria, Bihar
37|-=%MNEMansi Junction (4)  05:46-05:48-2m--21165.54243mECRMansi, Bihar
38%==%MSKMahes Khunt (2)  06:03-06:05-2m--21175.93237mECRMaheshkhunt, Bihar
39%==%PSRPasraha (3)XO  06:28-06:30-2m--21188.22541mECRPasraha, Bihar
40%==%NNRNarayanpur (2)XOO  06:58-07:00-2m--21199.82739mECRNarayanpur, Bihar
41%==%NNANaugachia (3)X  08:04 07:53-08:06 07:55-2m121223.46237mECRBhagalpur, Bihar
42%=-%KUEKurselaX  08:36 08:13-08:38 08:15-2m--21241.94231mECRNH 31, Bihar
43%==%CRRKaragola RoadX  08:55 08:39-08:57 08:41-2m--21258.96536mECRLachhmipur, Bihar
44%-=%SMOSemapurX  09:11 08:51-09:13 08:53-2m--21269.61935mECRKatihar, Bihar
45%--%KIRKatihar Junction (7)  09:30-09:50-20m621281.25135mNFRKatihar 854105, Bihar
46%--%LAVLabha (2)  10:16 10:17-10:18 10:19-2m121304.15429mNFRDist : Katihar, Bihar
47%==%AZRAzamnagar Road (3)X  10:41 10:43-10:43 10:45-2m--21325.85334mNFRAzamnagar, Bihar
48%==%BOEBarsoi Junction (3)  10:56 11:00-10:58 11:02-2m--21339.17337mNFRdist- katihar, Bihar
49%==%DLKDalkhola (3)  11:21 11:26-11:23 11:28-2m--21368.27144mNFRDalkola, West Bengal
50%==%KNEKishanGanj (3)  11:48 11:52-11:50 11:54-2m121396.77652mNFRKishanganj, Bihar
51%==%AUBAluabari Road (2)  12:15 12:18-12:17 12:20-2m221427.3490mNFRDist - uttar Dinajpur, West Bengal
52%==|NJPNew Jalpaiguri Junction (8)X  13:30-13:45-15m121484.122114mNFRCity-Siliguri . Dist-Jalpaiguri, West Bengal
53|--|SGUJSiliguri Junction (6)O  14:05-14:10 14:15-5 10m421491.361120mNFRDist - Darjeeling, West Bengal
54|--|NMZNew Mal Junction (3)X  15:06 15:02-15:11 15:07-5m--21539.167161mNFRDist - Jalpaiguri, West Bengal
55|--|BNVBinnaguri (3)  15:50 15:47-15:52-2 5m--21583.449132mNFRDist : jalpaiguri, West Bengal
56|--|DLODalgaon (3)  16:03-16:05-2m--21592.447 NFRDist : Alipurduar, West Bengal
57|--|HSAHasimara (3)X  16:40 16:37-16:42 16:39-2m--21617.717123mNFRDist - Alipurduar, West Bengal
58|--|APDJAlipur Duar Junction (3)  18:00 18:45----21652.5-53mNFRDist - Alipurduar, West Bengal
Scroll to Top
Scroll to Bottom